Temperature
22 21 20 20 19 20 22 24 25 25 24 24 24 23 22 21 21 19 19 20 20 20 20 19 19 19 19 19 19 19 19 19 19 19 19 19 19 19 19 19 19 19 19 19 19 19 19 18 18
22 21 20 20 20 21 23 24 25 25 24 24 24 23 22 21 20 19 19 20 20 20 20 20 19 19 19 19 19 19 19 19 19 19 19 19 19 19 19 19 19 19 19 19 19 19 19 19 18
22 21 20 20 21 22 23 25 25 25 25 25 24 23 22 21 20 20 20 20 20 20 20 20 20 19 19 19 19 19 19 19 19 19 19 19 19 19 19 19 19 19 19 19 19 19 19 19 18
21 21 21 21 22 24 24 25 25 25 25 24 23 22 21 21 21 20 20 20 20 20 20 20 20 19 19 19 19 19 19 19 19 19 19 19 19 19 19 19 19 19 19 19 19 19 19 18 18
22 21 21 21 23 25 26 26 26 25 24 23 23 21 21 21 21 20 20 20 20 20 20 20 20 20 19 19 19 19 19 19 19 19 19 19 19 19 19 19 19 19 19 19 19 19 18 18 18
22 21 21 22 24 25 26 26 26 24 24 23 22 21 20 20 21 20 20 20 20 20 20 20 20 20 20 19 19 19 19 19 19 19 19 19 19 19 19 19 19 19 19 19 19 19 18 18 18
22 21 22 23 25 25 26 26 26 24 24 23 22 21 20 20 21 20 20 20 20 20 20 20 20 20 20 20 19 19 19 19 19 19 19 19 19 19 19 19 19 19 19 19 19 19 19 18 18
23 22 23 24 25 25 27 27 26 25 24 24 23 21 21 21 21 20 20 20 20 20 20 20 20 20 20 19 19 19 19 19 19 19 19 19 19 19 19 19 19 19 19 19 19 19 19 19 19
24 22 23 25 25 26 26 26 26 25 25 24 23 22 22 21 21 21 20 20 20 20 20 20 20 20 20 19 19 19 19 19 19 19 19 19 19 19 19 19 19 19 19 19 19 19 19 19 19
24 22 25 26 26 26 26 26 26 25 24 23 22 22 22 21 21 21 20 20 20 20 20 20 20 20 20 19 19 19 19 19 19 19 19 19 19 19 19 19 19 19 19 19 19 19 19 19 19
24 24 26 28 28 28 27 26 26 24 23 23 22 22 22 21 21 21 21 21 21 20 20 20 20 20 20 20 19 19 19 19 19 19 19 19 19 19 19 19 19 19 19 19 19 19 19 19 19
26 27 28 28 28 28 27 26 26 25 24 24 23 23 22 22 22 21 21 21 21 20 20 20 20 20 20 20 19 19 19 19 19 19 19 19 19 19 19 19 19 19 19 19 19 19 19 19 19
26 27 28 29 29 28 27 26 26 25 25 24 23 23 22 22 22 22 21 21 21 20 20 20 20 20 20 20 19 19 19 19 19 19 19 19 19 19 19 19 19 19 19 19 19 19 19 19 19
27 27 28 28 28 28 27 26 25 24 24 24 23 23 23 23 22 22 21 21 21 21 21 20 20 20 20 20 20 20 19 19 19 19 19 19 19 19 19 19 19 19 19 19 19 19 19 19 19
27 26 27 28 28 28 27 26 25 25 24 24 23 23 23 23 23 22 22 22 21 21 21 20 20 20 20 20 20 20 19 19 19 19 19 19 19 19 19 19 19 19 19 19 19 19 19 19 19
26 25 25 27 27 28 26 24 25 25 24 24 23 23 23 23 23 23 22 22 21 21 21 20 20 20 20 20 20 19 19 19 19 19 19 19 19 19 19 19 19 19 19 19 19 19 19 19 19
24 24 25 27 27 28 26 25 25 25 25 24 24 23 23 23 23 23 22 22 22 21 21 21 20 20 20 20 20 19 20 19 19 19 19 19 19 19 19 19 19 19 19 19 19 19 19 19 19
24 24 25 26 27 27 26 25 25 25 25 24 24 23 23 23 23 23 23 22 22 22 21 21 20 20 20 20 20 20 20 20 19 19 19 19 19 19 19 19 19 19 19 19 19 19 19 19 19
26 26 26 27 27 27 25 25 24 25 25 24 24 24 23 23 23 23 23 23 22 22 21 21 21 20 20 20 20 20 20 20 19 19 19 19 19 19 19 19 19 19 19 19 19 19 19 19 19
26 25 25 27 28 27 25 25 25 25 24 25 24 24 24 23 23 23 23 23 22 22 22 21 21 21 21 20 20 20 20 20 20 19 19 19 19 19 19 19 19 19 19 19 19 19 19 19 19
27 26 26 26 27 26 25 24 24 25 25 25 25 24 24 23 23 23 23 23 22 22 22 21 21 21 21 21 20 20 20 20 19 19 19 19 19 19 19 19 19 19 19 19 19 19 19 19 19
26 28 28 27 25 24 25 23 23 24 24 24 24 24 23 23 23 23 23 23 23 23 22 22 22 21 21 21 20 20 20 20 20 19 19 19 19 19 19 19 19 19 19 19 19 19 19 19 19
27 28 28 27 25 23 23 23 22 23 23 23 23 23 23 23 23 23 23 23 23 23 22 22 22 21 21 20 20 20 20 20 19 19 19 19 19 19 19 19 19 19 19 19 19 19 19 19 19
28 27 25 24 22 23 23 23 22 22 23 23 24 24 23 23 23 23 23 23 23 22 22 22 22 21 21 20 20 20 20 20 19 19 19 19 19 19 19 19 19 19 19 19 19 19 19 18 18
27 24 23 23 22 22 22 23 22 23 24 24 24 24 24 24 23 23 23 23 23 22 22 22 22 21 21 20 20 20 20 20 19 19 19 19 19 19 19 19 19 19 18 18 18 18 18 18 18
26 24 23 23 22 22 23 22 23 24 25 25 25 25 24 24 24 23 23 23 23 23 22 22 22 21 21 20 20 20 20 20 19 19 19 19 19 19 19 19 19 18 18 18 18 18 18 18 18
27 24 23 22 22 21 22 23 23 24 24 25 25 25 24 24 24 24 23 23 23 22 22 22 22 21 21 20 20 20 20 19 19 19 19 19 19 19 18 18 18 18 18 18 18 18 18 18 18
26 24 21 21 22 22 22 22 22 23 23 24 24 24 24 24 24 24 23 23 23 22 22 22 21 21 21 20 20 20 20 19 19 19 19 19 18 18 18 18 18 18 18 18 18 18 18 18 18
26 25 22 20 21 21 21 22 23 22 23 23 23 24 24 24 24 24 24 23 23 22 22 21 21 21 21 20 20 20 20 19 19 19 19 18 18 18 18 18 18 18 18 18 18 18 18 17 17
26 24 22 22 21 20 21 21 24 23 23 23 24 24 24 24 24 24 23 23 23 22 22 22 21 21 21 20 20 20 20 19 19 19 18 18 18 18 18 18 18 18 18 17 17 17 17 17 17
Wind_Speed
11 9 4 1 1 2 1 2 5 7 5 7 11 11 10 7 5 6 3 10 10 8 8 10 11 12 12 13 13 13 13 13 13 14 14 14 14 14 13 13 12 12 11 11 11 11 10 10 10
7 5 2 0 2 2 2 3 8 9 10 10 12 12 10 8 7 8 6 10 10 8 8 10 12 13 13 14 13 13 13 13 13 14 13 13 13 12 12 12 11 11 11 10 10 10 10 9 8
6 4 0 1 1 2 2 4 9 12 10 8 7 7 6 6 6 5 8 12 9 8 9 11 14 14 14 14 13 13 13 13 13 13 13 12 12 11 11 10 10 10 10 10 9 9 8 8 8
2 1 1 2 1 2 4 5 10 12 9 8 9 7 5 4 5 8 13 13 10 7 9 12 14 14 14 14 13 13 13 13 13 13 12 11 11 11 10 9 9 9 9 9 8 8 7 6 6
1 1 2 2 1 2 4 6 9 10 6 9 11 9 5 4 12 14 14 12 11 7 8 12 14 14 14 13 13 13 13 13 13 12 11 11 10 9 9 9 9 8 8 8 7 7 6 6 5
1 2 2 1 3 3 5 9 12 13 12 11 11 8 4 6 12 13 12 11 10 9 8 11 14 14 14 13 13 13 13 13 12 12 11 10 9 9 8 9 8 7 7 7 6 6 5 6 5
2 2 2 3 5 5 5 7 9 10 10 8 8 7 5 6 9 11 11 11 10 9 8 7 10 12 13 12 12 12 12 11 11 11 10 9 9 8 8 7 7 6 6 6 5 5 4 5 5
3 2 1 2 6 5 6 6 6 9 9 10 7 8 7 8 10 11 10 10 9 7 7 6 7 8 9 10 11 10 10 10 10 9 9 8 8 8 7 7 6 6 6 5 5 4 4 5 5
2 2 2 3 6 6 7 9 6 8 10 7 6 7 10 14 13 12 9 8 7 8 6 6 6 6 7 8 9 9 9 8 8 8 8 7 6 6 6 6 6 6 6 5 5 5 5 5 5
3 3 4 4 7 8 9 9 8 8 11 10 10 11 14 13 13 13 11 9 8 8 7 6 6 6 7 7 7 7 6 6 6 5 6 6 5 5 5 6 7 6 6 5 5 5 5 4 3
4 4 2 2 7 9 8 6 6 10 8 11 15 15 14 12 11 11 10 10 10 9 8 7 6 6 6 4 6 5 4 4 5 5 6 5 4 4 4 4 4 5 5 4 4 3 3 3 3
2 4 3 3 4 6 8 7 7 8 10 14 17 17 14 12 11 11 11 10 9 9 8 7 7 5 5 5 4 4 3 3 3 4 6 5 3 2 2 2 3 3 3 3 3 2 3 4 4
0 2 2 5 5 7 10 9 10 9 12 15 15 14 13 12 10 9 10 10 9 8 8 8 8 6 5 4 3 4 3 3 4 5 6 6 3 2 2 2 2 3 4 3 2 2 2 2 3
2 2 0 4 6 8 11 9 8 10 14 15 15 13 12 12 11 9 10 9 9 9 9 8 8 7 5 5 4 3 3 4 4 4 6 7 5 3 2 2 1 2 4 4 3 2 2 2 2
3 3 3 1 4 6 10 5 8 13 14 14 14 13 12 11 11 11 11 10 10 9 8 7 7 6 6 5 4 3 3 4 3 4 6 7 6 5 3 2 2 2 4 3 2 2 1 1 1
4 3 2 3 3 4 8 6 8 13 14 13 12 13 11 10 11 11 11 9 9 8 7 7 7 7 5 4 3 2 3 3 3 4 4 5 6 5 3 2 2 2 2 1 1 0 0 1 1
3 1 3 4 2 3 5 5 8 11 13 12 12 12 12 10 9 10 11 11 10 9 8 7 6 6 5 4 3 2 2 2 3 4 4 4 4 4 3 2 2 1 1 1 1 1 1 0 1
4 3 2 3 2 4 4 5 9 11 13 13 12 11 11 12 11 11 11 11 10 9 8 7 6 6 5 3 2 1 1 1 1 2 3 3 3 4 3 2 1 1 1 1 0 1 1 1 1
5 3 4 5 3 3 4 6 7 9 9 11 11 11 11 11 10 10 11 11 9 8 7 7 6 6 5 3 2 2 1 1 1 1 3 3 3 3 2 1 1 2 2 1 1 1 1 0 1
5 4 4 4 4 3 4 3 6 7 10 12 14 13 12 9 8 10 10 10 10 9 8 8 7 6 5 4 3 2 2 1 1 1 1 2 3 3 3 2 2 1 1 0 0 1 1 0 1
5 7 6 4 1 3 4 2 2 4 5 6 9 10 10 11 11 11 11 10 10 9 9 9 8 7 6 5 2 2 2 2 1 0 1 1 2 3 3 3 2 2 2 1 1 1 2 1 1
6 7 7 5 2 1 3 2 5 4 3 5 7 8 9 9 8 9 10 10 11 11 10 9 8 7 6 5 4 4 3 2 2 2 1 1 1 2 2 3 3 2 2 1 1 1 2 2 0
6 5 4 5 4 2 2 3 6 2 4 6 8 9 9 10 10 10 10 10 10 10 9 9 7 6 5 4 5 4 3 2 2 1 1 1 1 1 2 2 2 2 2 2 1 1 1 2 2
5 2 4 4 4 1 3 3 4 4 8 7 9 10 11 11 11 10 9 8 7 7 7 8 7 6 5 5 5 5 5 4 3 2 2 1 1 1 1 2 2 2 2 2 2 2 1 1 1
4 4 3 3 3 3 2 2 6 7 7 9 11 13 12 11 10 9 9 9 8 8 8 8 8 7 6 5 5 5 5 5 4 4 3 3 2 2 2 2 2 2 2 2 2 1 1 1 1
4 8 7 5 4 3 2 3 6 5 4 7 11 12 12 12 11 10 11 10 9 10 9 8 9 8 7 6 5 4 4 4 3 4 3 4 3 3 3 2 2 2 2 2 2 1 1 1 1
4 3 7 6 2 1 2 3 5 2 0 3 7 9 11 11 11 10 10 9 9 9 9 9 8 7 7 6 5 4 4 4 3 3 2 2 2 3 3 2 2 2 2 2 2 1 1 1 1
6 7 6 5 4 2 2 3 5 4 4 4 7 9 8 9 9 9 8 8 8 8 8 8 8 7 6 6 5 4 3 3 3 3 2 2 2 2 2 2 2 2 2 2 2 1 1 1 1
2 3 5 4 5 6 3 6 6 9 8 6 6 8 9 10 10 9 8 8 7 7 8 7 7 7 6 6 5 4 3 3 3 2 2 2 2 2 2 2 2 2 2 2 1 2 2 1 2
4 5 6 5 3 5 5 6 5 7 6 5 5 7 9 10 10 9 8 8 7 7 7 7 7 6 5 5 4 4 3 3 3 2 2 2 2 2 2 2 2 2 2 2 2 2 1 1 1
Wind_Direction
170 162 162 182 30 27 22 76 103 84 70 68 75 82 82 68 91 125 148 134 132 135 136 136 136 135 133 130 128 126 125 126 124 123 125 126 126 128 129 129 129 129 129 130 130 128 127 127 129
165 162 176 58 49 53 46 96 93 97 119 109 84 82 77 72 85 111 124 135 135 133 131 132 133 135 134 132 132 130 128 129 127 126 126 126 128 131 132 132 133 132 133 134 134 135 134 135 136
170 186 167 43 9 126 111 95 102 103 106 97 88 68 70 98 107 123 141 137 129 126 129 132 130 132 133 133 133 133 132 133 131 130 129 129 131 133 136 138 138 138 138 140 140 141 143 144 146
179 164 36 49 54 126 143 135 112 106 82 77 95 71 62 81 115 131 135 134 127 127 131 133 130 131 132 133 133 134 134 135 135 133 133 134 135 138 139 143 142 143 143 145 147 152 156 157 161
171 85 50 40 57 76 102 113 111 104 89 90 94 93 75 69 117 129 134 136 132 130 131 134 133 132 133 134 135 136 137 138 138 137 137 138 140 141 144 148 148 150 151 151 155 163 171 176 181
89 68 71 79 103 103 98 101 100 101 108 105 99 99 94 125 128 136 136 135 134 136 135 134 137 137 138 138 138 138 138 138 139 139 140 142 145 148 149 151 153 158 162 161 164 172 180 189 197
132 106 152 146 116 113 118 111 106 118 122 120 119 103 119 140 140 137 134 132 130 133 133 131 138 142 142 143 142 143 143 144 143 144 146 148 153 158 160 162 165 167 168 169 175 184 194 203 213
172 115 143 131 117 116 118 100 105 115 113 126 121 124 150 162 142 129 125 127 129 133 134 135 138 143 146 149 150 150 149 152 151 152 154 155 157 162 167 172 179 178 181 188 199 210 219 227 231
169 87 210 179 143 138 119 103 88 86 101 105 105 127 149 147 135 128 124 124 135 141 146 148 147 149 151 156 160 158 158 161 160 163 166 164 164 171 177 184 187 191 198 208 220 232 237 243 248
151 171 217 192 153 142 134 125 125 104 97 99 103 116 135 139 139 141 145 147 150 155 159 158 158 164 166 167 164 166 169 168 172 177 174 175 180 192 197 202 205 207 210 222 238 246 250 257 258
168 197 211 168 144 136 131 123 119 122 123 142 142 145 148 148 147 152 156 158 162 165 163 162 164 166 169 165 159 169 178 173 179 185 179 179 182 196 205 198 215 220 221 232 250 252 256 261 257
196 236 187 147 132 123 128 125 116 131 151 153 151 152 153 153 155 158 159 161 156 156 161 164 164 165 167 160 159 168 179 172 176 182 176 167 158 170 187 196 208 210 215 222 232 243 257 258 254
272 334 74 129 128 123 120 124 122 132 141 144 145 145 151 157 158 158 156 152 151 154 161 164 160 164 161 153 164 166 182 179 184 184 183 173 167 179 191 211 207 211 210 215 232 243 260 269 267
269 269 217 133 126 130 127 129 118 146 145 147 149 153 157 160 158 152 152 152 155 157 162 164 164 166 156 158 171 171 172 181 185 190 193 190 183 183 183 200 217 218 218 217 221 238 246 260 268
335 352 352 136 127 137 120 115 149 158 151 151 154 156 156 162 159 160 164 160 161 161 161 164 166 163 159 162 169 161 161 174 184 198 196 193 181 180 176 180 202 225 221 216 218 245 256 272 273
360 21 343 265 143 162 125 159 171 160 152 157 159 159 161 168 170 167 166 161 160 156 158 168 165 159 157 157 157 152 167 168 183 189 192 190 183 182 174 169 207 216 199 184 178 182 220 306 313
10 306 259 277 192 149 121 159 172 164 158 163 165 165 167 169 169 169 167 163 163 162 161 167 157 155 156 157 157 159 162 172 181 183 191 195 180 172 167 177 214 212 158 155 213 148 163 207 293
231 239 261 255 220 120 132 162 165 174 170 167 168 170 171 175 179 174 170 166 165 163 159 159 152 155 152 138 123 116 99 150 167 184 197 192 177 162 152 154 178 147 124 104 125 139 134 194 225
210 223 249 255 209 132 161 153 173 178 177 173 174 174 177 183 183 174 171 166 162 160 154 156 156 162 150 143 149 144 184 224 229 215 196 184 174 162 145 143 139 139 143 174 164 138 119 358 71
201 208 241 272 226 162 155 174 188 181 188 186 183 180 179 177 174 174 171 170 168 167 166 163 165 167 167 171 169 167 172 197 199 228 202 182 168 166 157 153 157 151 142 131 139 117 116 10 86
234 209 216 213 316 57 107 346 256 221 200 192 187 179 171 174 175 175 176 172 167 171 175 175 174 173 178 171 137 112 74 43 38 0 236 202 167 161 150 153 154 144 144 176 203 160 145 170 274
247 225 195 182 150 237 135 195 270 226 189 189 180 173 175 173 169 172 172 174 177 181 179 176 177 174 175 160 152 154 160 183 207 195 202 234 173 162 153 153 156 162 152 157 203 155 160 146 211
212 217 172 161 142 94 31 125 279 225 200 205 186 178 178 173 172 176 179 181 183 182 180 180 176 175 172 161 165 164 167 190 189 166 178 231 258 189 164 156 157 162 165 173 175 135 144 155 170
170 83 41 46 72 54 249 156 266 221 210 199 188 180 180 175 174 177 179 174 176 178 177 174 169 177 179 174 170 171 179 185 172 177 195 228 248 257 229 170 176 176 177 184 192 186 164 179 172
127 101 39 6 8 257 262 151 245 242 213 194 185 184 179 175 175 177 176 176 177 177 178 172 168 177 179 174 176 183 188 186 188 193 196 200 216 235 239 209 198 201 200 194 188 183 200 197 189
195 145 162 188 203 258 308 215 252 251 227 198 177 173 169 171 176 177 177 178 180 181 179 172 173 181 183 183 188 185 184 185 194 196 193 199 208 217 219 206 205 201 189 187 177 183 219 190 209
155 162 163 139 147 145 272 279 310 317 42 176 159 156 169 174 174 178 175 173 176 177 179 176 177 186 186 186 184 184 180 177 184 193 191 205 212 212 213 204 202 205 197 182 164 178 228 200 210
148 154 99 119 150 176 264 250 224 221 214 202 163 157 172 173 172 171 170 173 177 177 176 174 174 187 189 186 187 185 183 180 178 172 175 189 213 214 203 203 193 196 201 201 186 200 222 200 254
91 95 108 120 151 149 201 258 225 201 201 194 184 167 164 163 163 162 164 168 170 168 169 167 176 179 179 181 179 176 177 178 174 179 192 198 206 199 199 204 203 202 209 206 196 222 206 210 265
148 166 144 150 198 154 163 250 239 189 199 182 170 162 158 158 151 149 148 147 152 164 167 167 172 171 176 177 173 179 175 171 179 193 198 193 200 203 206 209 209 211 198 189 192 221 218 199 237
Height
1504 1504 1504 1505 1506 1510 1509 1499 1491 1491 1492 1492 1491 1493 1496 1500 1505 1513 1510 1509 1510 1510 1509 1509 1509 1509 1510 1511 1512 1512 1513 1514 1515 1516 1517 1519 1520 1521 1522 1523 1523 1524 1525 1525 1526 1526 1527 1528 1529
1504 1504 1505 1506 1510 1519 1511 1497 1493 1491 1493 1493 1494 1496 1498 1503 1505 1507 1509 1510 1511 1511 1510 1510 1509 1509 1511 1512 1513 1514 1515 1516 1517 1518 1519 1520 1521 1522 1523 1524 1524 1525 1526 1526 1526 1527 1528 1529 1529
1505 1505 1506 1507 1511 1515 1508 1496 1492 1493 1493 1492 1496 1499 1501 1505 1507 1508 1509 1511 1511 1511 1511 1511 1511 1511 1512 1513 1514 1515 1516 1517 1518 1519 1520 1521 1522 1523 1524 1525 1525 1526 1526 1527 1527 1528 1529 1529 1530
1505 1506 1507 1510 1511 1502 1497 1494 1492 1493 1495 1495 1497 1502 1505 1508 1508 1509 1510 1512 1512 1512 1513 1513 1513 1513 1514 1515 1516 1517 1518 1519 1520 1521 1522 1523 1523 1524 1524 1525 1526 1526 1527 1527 1528 1528 1529 1530 1531
1505 1506 1510 1513 1508 1498 1493 1491 1491 1493 1496 1499 1499 1505 1508 1509 1509 1510 1512 1513 1513 1514 1514 1515 1515 1516 1516 1517 1518 1519 1520 1521 1522 1523 1523 1524 1524 1525 1525 1525 1526 1527 1527 1528 1528 1529 1530 1530 1531
1506 1506 1515 1517 1507 1498 1494 1492 1493 1496 1499 1502 1503 1506 1511 1512 1511 1512 1514 1515 1515 1515 1516 1516 1517 1518 1518 1519 1520 1521 1521 1522 1523 1524 1525 1525 1526 1526 1526 1526 1527 1527 1528 1528 1529 1529 1529 1530 1530
1507 1509 1513 1510 1505 1500 1496 1494 1495 1497 1500 1502 1504 1507 1512 1514 1513 1513 1515 1516 1517 1517 1518 1518 1519 1520 1520 1521 1522 1522 1523 1524 1525 1525 1526 1526 1527 1527 1528 1528 1528 1528 1529 1529 1529 1529 1529 1529 1529
1504 1507 1509 1507 1505 1502 1496 1495 1496 1498 1500 1504 1504 1507 1511 1514 1515 1515 1516 1518 1519 1519 1520 1520 1521 1521 1522 1523 1524 1524 1525 1526 1526 1527 1527 1528 1528 1528 1529 1529 1529 1529 1529 1529 1529 1529 1529 1528 1528
1503 1510 1512 1504 1502 1500 1496 1496 1499 1500 1501 1504 1505 1506 1509 1513 1515 1517 1518 1519 1520 1520 1521 1522 1522 1523 1523 1524 1525 1526 1526 1527 1527 1528 1528 1529 1529 1529 1530 1530 1530 1530 1530 1530 1530 1529 1529 1528 1528
1502 1509 1503 1493 1492 1494 1495 1496 1499 1502 1503 1506 1508 1510 1511 1514 1515 1517 1518 1519 1520 1521 1522 1523 1523 1524 1525 1525 1526 1527 1527 1528 1529 1529 1529 1530 1530 1530 1531 1531 1531 1531 1531 1531 1531 1530 1529 1529 1528
1498 1500 1493 1491 1491 1493 1495 1497 1499 1501 1506 1506 1507 1510 1512 1514 1516 1517 1518 1519 1520 1521 1522 1523 1524 1525 1525 1526 1527 1527 1528 1529 1529 1530 1530 1531 1531 1531 1531 1532 1532 1532 1532 1532 1531 1531 1530 1530 1529
1496 1493 1491 1491 1491 1492 1495 1497 1500 1500 1504 1505 1506 1508 1512 1514 1516 1517 1518 1519 1521 1521 1523 1524 1525 1526 1526 1527 1527 1528 1528 1529 1530 1530 1531 1531 1531 1532 1532 1532 1533 1533 1532 1532 1532 1531 1531 1530 1530
1495 1493 1490 1491 1491 1493 1495 1497 1500 1503 1504 1506 1508 1510 1512 1514 1516 1518 1519 1520 1521 1522 1523 1524 1525 1526 1527 1527 1528 1529 1529 1530 1531 1531 1531 1532 1532 1532 1532 1533 1533 1533 1533 1532 1532 1532 1531 1531 1530
1494 1493 1492 1491 1491 1493 1496 1499 1501 1505 1505 1507 1509 1510 1512 1514 1516 1517 1519 1520 1521 1522 1523 1524 1525 1526 1527 1528 1528 1529 1530 1530 1531 1531 1531 1532 1532 1532 1532 1533 1533 1533 1533 1533 1533 1532 1532 1531 1531
1495 1495 1494 1492 1492 1494 1497 1504 1502 1503 1505 1508 1509 1511 1512 1514 1516 1517 1518 1519 1520 1522 1523 1524 1525 1526 1527 1528 1529 1529 1530 1530 1531 1531 1531 1532 1532 1532 1532 1533 1533 1533 1533 1533 1532 1532 1532 1532 1531
1496 1501 1506 1495 1492 1494 1500 1512 1503 1504 1505 1508 1509 1511 1512 1514 1515 1516 1518 1519 1520 1521 1523 1524 1525 1526 1527 1528 1528 1529 1530 1530 1530 1531 1531 1532 1532 1532 1532 1532 1532 1532 1532 1532 1532 1532 1532 1532 1531
1506 1512 1510 1499 1491 1493 1499 1507 1503 1504 1504 1507 1509 1510 1511 1513 1515 1516 1517 1518 1519 1521 1522 1523 1525 1526 1527 1528 1528 1529 1530 1530 1530 1531 1531 1531 1532 1532 1532 1532 1532 1532 1532 1532 1532 1532 1532 1531 1531
1514 1512 1508 1504 1494 1494 1500 1502 1501 1502 1503 1505 1507 1509 1510 1511 1513 1515 1516 1518 1519 1520 1521 1523 1524 1525 1526 1527 1528 1529 1529 1529 1530 1530 1531 1531 1531 1531 1531 1531 1531 1531 1531 1531 1531 1531 1531 1531 1530
1500 1505 1507 1500 1492 1496 1501 1503 1502 1502 1503 1505 1506 1508 1509 1510 1513 1515 1516 1517 1518 1520 1521 1522 1523 1524 1525 1526 1527 1527 1528 1529 1529 1529 1530 1530 1530 1531 1530 1530 1530 1530 1530 1530 1530 1530 1530 1530 1530
1497 1505 1505 1498 1490 1495 1502 1503 1500 1500 1501 1502 1503 1505 1507 1510 1512 1514 1515 1516 1517 1518 1519 1521 1522 1523 1524 1525 1526 1527 1527 1528 1528 1529 1529 1529 1529 1530 1530 1529 1529 1529 1529 1529 1529 1529 1529 1529 1529
1496 1501 1501 1500 1495 1496 1503 1511 1505 1501 1501 1502 1503 1505 1506 1508 1509 1511 1513 1514 1516 1517 1518 1519 1521 1522 1523 1524 1525 1526 1526 1527 1528 1528 1528 1528 1528 1528 1528 1528 1528 1528 1528 1528 1528 1528 1528 1528 1528
1499 1487 1489 1495 1506 1515 1510 1529 1511 1503 1502 1502 1503 1504 1506 1508 1509 1510 1511 1513 1514 1515 1517 1519 1520 1521 1523 1524 1524 1525 1525 1525 1526 1527 1527 1527 1527 1527 1527 1527 1527 1527 1527 1527 1527 1527 1527 1527 1527
1487 1481 1485 1491 1503 1515 1514 1525 1519 1506 1507 1503 1502 1503 1505 1506 1507 1508 1510 1511 1513 1515 1516 1518 1519 1520 1521 1522 1523 1524 1524 1525 1525 1526 1526 1526 1526 1526 1526 1526 1525 1526 1526 1526 1526 1526 1526 1526 1525
1478 1485 1492 1500 1511 1529 1520 1525 1524 1510 1503 1500 1499 1501 1502 1503 1505 1507 1509 1511 1512 1514 1515 1516 1517 1518 1520 1521 1522 1522 1523 1524 1524 1524 1524 1524 1525 1525 1524 1524 1524 1524 1524 1524 1524 1525 1524 1524 1524
1481 1502 1523 1529 1537 1535 1518 1521 1519 1499 1493 1493 1495 1497 1499 1501 1503 1506 1507 1509 1510 1512 1513 1515 1516 1517 1518 1520 1520 1521 1522 1522 1522 1523 1523 1523 1523 1523 1523 1523 1523 1523 1523 1523 1523 1523 1523 1523 1522
1483 1496 1522 1536 1540 1534 1519 1522 1507 1491 1489 1490 1492 1494 1497 1500 1502 1504 1505 1507 1508 1510 1511 1513 1514 1516 1517 1518 1519 1519 1520 1520 1521 1521 1521 1521 1521 1521 1521 1521 1521 1521 1521 1521 1521 1521 1521 1521 1521
1482 1492 1494 1515 1525 1534 1528 1514 1501 1490 1489 1491 1492 1493 1496 1498 1500 1502 1504 1505 1507 1508 1510 1511 1513 1514 1515 1516 1517 1517 1518 1518 1518 1519 1519 1519 1519 1519 1519 1519 1519 1519 1519 1519 1519 1518 1519 1519 1518
1473 1482 1500 1515 1532 1539 1530 1521 1514 1499 1494 1492 1492 1493 1494 1497 1499 1500 1502 1504 1505 1507 1509 1510 1511 1512 1513 1514 1515 1515 1516 1516 1516 1516 1516 1516 1516 1517 1516 1516 1516 1516 1516 1516 1516 1516 1516 1516 1516
1479 1486 1496 1509 1515 1532 1539 1525 1493 1493 1491 1491 1491 1491 1492 1495 1497 1498 1500 1502 1504 1506 1507 1509 1510 1510 1511 1512 1513 1513 1514 1514 1514 1514 1514 1514 1514 1514 1514 1514 1514 1514 1514 1513 1513 1513 1513 1513 1513
1472 1481 1492 1509 1516 1518 1525 1519 1483 1485 1487 1488 1489 1490 1492 1494 1495 1497 1499 1501 1503 1504 1506 1507 1508 1509 1509 1510 1511 1512 1512 1512 1512 1512 1512 1512 1511 1511 1511 1511 1511 1511 1511 1511 1511 1511 1511 1510 1510